MZT1233 ZYCC-ZHCC

Flight info

Callsign MZT1233
Flight time N/A
Altitude 36100
Route LEMOT A588 UDETI W106 MAKNO W5 HCH W4 TAMIX B208 NOPIN
Aircraft CL60/M-SADE3FGHIJ3J4J7P2RWXY/HB1D1

Departure

Time 2026-04-26 14:17
Airport Changchun Longjia International Airport (ZYCC)

Arrival

Time N/A
Airport Zhengzhou Xinzheng International Airport (ZHCC)
Time Latitude Longitude Altitude Speed Heading
2026-04-26 13:23 43.99373 125.68623 714 ft 0 kts 319°
2026-04-26 14:10 43.99373 125.68622 717 ft 0 kts 319°
2026-04-26 14:10 43.99371 125.68625 717 ft 2 kts 319°
2026-04-26 14:10 43.99359 125.68639 717 ft 2 kts 319°
2026-04-26 14:10 43.99348 125.68652 717 ft 2 kts 319°
2026-04-26 14:11 43.99330 125.68675 717 ft 2 kts 305°
2026-04-26 14:11 43.99327 125.68694 717 ft 2 kts 257°
2026-04-26 14:11 43.99332 125.68707 717 ft 1 kts 229°
2026-04-26 14:12 43.99333 125.68708 717 ft 0 kts 228°
2026-04-26 14:13 43.99296 125.68643 717 ft 13 kts 248°
2026-04-26 14:13 43.99342 125.68536 717 ft 14 kts 319°
2026-04-26 14:13 43.99342 125.68414 717 ft 15 kts 229°
2026-04-26 14:14 43.99266 125.68291 717 ft 18 kts 230°
2026-04-26 14:14 43.99162 125.68125 717 ft 26 kts 230°
2026-04-26 14:14 43.99048 125.67940 717 ft 23 kts 229°
2026-04-26 14:14 43.98939 125.67764 717 ft 24 kts 229°
2026-04-26 14:15 43.98828 125.67587 717 ft 22 kts 230°
2026-04-26 14:15 43.98722 125.67414 717 ft 24 kts 230°
2026-04-26 14:15 43.98619 125.67249 717 ft 21 kts 229°
2026-04-26 14:15 43.98600 125.67139 717 ft 11 kts 310°
2026-04-26 14:16 43.98666 125.67059 717 ft 13 kts 322°
2026-04-26 14:16 43.98748 125.67094 717 ft 15 kts 49°
2026-04-26 14:16 43.98964 125.67444 717 ft 90 kts 50°
2026-04-26 14:16 43.99551 125.68392 743 ft 161 kts 50°
2026-04-26 14:17 44.00322 125.69649 1338 ft 180 kts 50°
2026-04-26 14:17 44.01148 125.70999 2141 ft 194 kts 50°
2026-04-26 14:17 44.02091 125.72540 2660 ft 223 kts 50°
2026-04-26 14:17 44.03117 125.74204 3465 ft 235 kts 50°
2026-04-26 14:18 44.04184 125.75929 4347 ft 242 kts 50°
2026-04-26 14:18 44.05281 125.77703 5249 ft 247 kts 49°
2026-04-26 14:18 44.06410 125.79524 6121 ft 256 kts 49°
2026-04-26 14:18 44.07616 125.81469 6999 ft 272 kts 49°
2026-04-26 14:19 44.08844 125.83456 8072 ft 277 kts 48°
2026-04-26 14:19 44.10090 125.85487 9123 ft 282 kts 49°
2026-04-26 14:19 44.11365 125.87563 10083 ft 288 kts 49°
2026-04-26 14:19 44.12692 125.89726 10929 ft 298 kts 49°
2026-04-26 14:20 44.14064 125.91962 11741 ft 308 kts 50°
2026-04-26 14:20 44.15453 125.94237 12631 ft 315 kts 51°
2026-04-26 14:20 44.16470 125.96912 13616 ft 320 kts 76°
2026-04-26 14:20 44.16469 125.99979 14456 ft 332 kts 104°
2026-04-26 14:21 44.15409 126.02883 15215 ft 346 kts 129°
2026-04-26 14:21 44.13563 126.05100 15929 ft 356 kts 155°
2026-04-26 14:21 44.11234 126.06118 16691 ft 351 kts 180°
2026-04-26 14:21 44.08886 126.05810 17482 ft 341 kts 204°
2026-04-26 14:22 44.06782 126.04388 18260 ft 333 kts 220°
2026-04-26 14:22 44.04837 126.02617 19035 ft 336 kts 221°
2026-04-26 14:22 44.02894 126.00860 19839 ft 337 kts 221°
2026-04-26 14:22 44.00937 125.99094 20605 ft 339 kts 221°
2026-04-26 14:23 43.98948 125.97304 21325 ft 342 kts 221°
2026-04-26 14:23 43.96937 125.95496 22038 ft 344 kts 221°
2026-04-26 14:23 43.94929 125.93696 22730 ft 346 kts 221°
2026-04-26 14:23 43.92919 125.91894 23359 ft 349 kts 221°
2026-04-26 14:24 43.90908 125.90049 24024 ft 349 kts 223°
2026-04-26 14:24 43.88935 125.88052 24455 ft 355 kts 225°
2026-04-26 14:24 43.86920 125.85968 24849 ft 363 kts 224°
2026-04-26 14:24 43.84875 125.83863 25332 ft 367 kts 224°
2026-04-26 14:25 43.82829 125.81761 25862 ft 369 kts 224°
2026-04-26 14:25 43.80721 125.79703 26350 ft 376 kts 219°
2026-04-26 14:25 43.78425 125.77950 26823 ft 381 kts 216°
2026-04-26 14:25 43.76068 125.76207 27292 ft 383 kts 216°
2026-04-26 14:26 43.73716 125.74463 27728 ft 386 kts 216°
2026-04-26 14:26 43.71351 125.72712 28160 ft 388 kts 216°
2026-04-26 14:26 43.68966 125.70946 28547 ft 390 kts 216°
2026-04-26 14:26 43.66566 125.69172 28953 ft 392 kts 216°
2026-04-26 14:27 43.64158 125.67394 29348 ft 393 kts 216°
2026-04-26 14:27 43.61751 125.65617 29702 ft 396 kts 216°
2026-04-26 14:27 43.59326 125.63829 30069 ft 397 kts 216°
2026-04-26 14:27 43.56890 125.62034 30418 ft 399 kts 216°
2026-04-26 14:28 43.54406 125.60228 30710 ft 402 kts 215°
2026-04-26 14:28 43.51908 125.58455 31005 ft 404 kts 215°
2026-04-26 14:28 43.49432 125.56701 31336 ft 405 kts 215°
2026-04-26 14:28 43.46919 125.54923 31638 ft 405 kts 215°
2026-04-26 14:29 43.44399 125.53139 31863 ft 406 kts 215°
2026-04-26 14:29 43.41888 125.51362 32044 ft 408 kts 215°
2026-04-26 14:29 43.39360 125.49573 32217 ft 410 kts 214°
2026-04-26 14:29 43.36820 125.47779 32400 ft 412 kts 214°
2026-04-26 14:30 43.34249 125.45964 32566 ft 413 kts 214°
2026-04-26 14:30 43.31699 125.44167 32765 ft 413 kts 214°
2026-04-26 14:30 43.29129 125.42355 32949 ft 414 kts 214°
2026-04-26 14:30 43.26585 125.40565 33082 ft 415 kts 214°
2026-04-26 14:31 43.24011 125.38754 33227 ft 416 kts 214°
2026-04-26 14:31 43.21417 125.36932 33371 ft 417 kts 214°
2026-04-26 14:31 43.18837 125.35121 33519 ft 417 kts 214°
2026-04-26 14:31 43.16228 125.33291 33622 ft 420 kts 214°
2026-04-26 14:32 43.13647 125.31481 33773 ft 420 kts 214°
2026-04-26 14:32 43.11046 125.29661 33898 ft 421 kts 214°
2026-04-26 14:32 43.08431 125.27831 34033 ft 422 kts 214°
2026-04-26 14:32 43.05819 125.26006 34145 ft 422 kts 214°
2026-04-26 14:33 43.03189 125.24171 34243 ft 423 kts 214°
2026-04-26 14:33 43.00582 125.22353 34359 ft 423 kts 214°
2026-04-26 14:33 42.97901 125.20622 34524 ft 426 kts 210°
2026-04-26 14:33 42.95116 125.19276 34710 ft 431 kts 203°
2026-04-26 14:34 42.92165 125.18346 34864 ft 437 kts 197°
2026-04-26 14:34 42.89147 125.17886 34976 ft 442 kts 192°
2026-04-26 14:34 42.86063 125.17371 35102 ft 438 kts 197°
2026-04-26 14:34 42.83086 125.16576 35208 ft 435 kts 200°
2026-04-26 14:35 42.80187 125.15510 35326 ft 431 kts 204°
2026-04-26 14:35 42.74643 125.12678 35537 ft 426 kts 211°
2026-04-26 14:36 42.69342 125.09103 35732 ft 424 kts 214°
2026-04-26 14:36 42.66733 125.07267 35844 ft 424 kts 214°
2026-04-26 14:36 42.64116 125.05430 35943 ft 424 kts 214°
2026-04-26 14:36 42.61470 125.03575 36053 ft 425 kts 214°
2026-04-26 14:37 42.58865 125.01751 36120 ft 426 kts 214°
2026-04-26 14:37 42.53551 124.98035 36123 ft 432 kts 214°
2026-04-26 14:38 42.48174 124.94284 36110 ft 437 kts 214°
2026-04-26 14:38 42.42740 124.90503 36125 ft 442 kts 214°
2026-04-26 14:39 42.37233 124.86681 36097 ft 446 kts 214°
2026-04-26 14:39 42.31725 124.82867 36118 ft 447 kts 214°
2026-04-26 14:40 42.26192 124.79046 36114 ft 448 kts 214°
2026-04-26 14:40 42.20627 124.75210 36121 ft 447 kts 214°
2026-04-26 14:41 42.15105 124.71412 36112 ft 447 kts 214°
2026-04-26 14:41 42.09546 124.67595 36108 ft 447 kts 214°
2026-04-26 14:42 42.04027 124.63815 36107 ft 446 kts 214°
2026-04-26 14:42 41.98499 124.60032 36099 ft 446 kts 215°
2026-04-26 14:43 41.93104 124.56003 36110 ft 444 kts 217°
2026-04-26 14:43 41.87727 124.51880 36103 ft 444 kts 217°
2026-04-26 14:44 41.82381 124.47794 36104 ft 444 kts 217°
2026-04-26 14:44 41.77026 124.43710 36104 ft 444 kts 217°